CDT,Max TemperatureF,Mean TemperatureF,Min TemperatureF,Max Dew PointF,MeanDew PointF,Min DewpointF,Max Humidity, Mean Humidity, Min Humidity, Max Sea Level PressureIn, Mean Sea Level PressureIn, Min Sea Level PressureIn, Max VisibilityMiles, Mean VisibilityMiles, Min VisibilityMiles, Max Wind SpeedMPH, Mean Wind SpeedMPH, Max Gust SpeedMPH,PrecipitationIn, CloudCover, Events, WindDirDegrees
2013-10-1,84,74,63,66,63,59,93,70,47,29.99,29.95,29.87,10,9,6,16,8,24,0.00,4,,197
2013-10-2,84,73,61,70,65,59,100,73,46,30.06,30.00,29.93,10,5,0,12,5,17,0.00,2,Fog,173
2013-10-3,86,76,66,70,65,63,90,73,55,29.94,29.88,29.78,10,10,2,33,9,43,0.18,4,Rain-Thunderstorm,197
2013-10-4,88,79,69,68,66,62,90,68,45,29.94,29.89,29.85,10,9,5,20,10,25,0.00,1,,181
2013-10-5,75,62,49,68,60,46,93,81,68,29.92,29.88,29.85,10,10,9,16,8,24,0.12,5,Rain,219
2013-10-6,52,46,39,46,43,37,93,77,61,29.88,29.84,29.81,10,9,3,20,10,26,0.06,6,Rain,250
2013-10-7,70,60,49,47,45,42,93,65,37,30.12,30.00,29.88,10,10,10,14,7,18,0.00,4,,270
2013-10-8,76,62,47,48,45,43,86,60,33,30.18,30.13,30.09,10,10,10,15,7,20,0.00,0,,179
2013-10-9,74,60,45,48,44,42,86,60,33,30.18,30.13,30.09,10,10,10,12,5,15,0.00,0,,145
2013-10-10,77,64,51,55,51,46,89,63,36,30.14,30.06,29.98,10,10,9,14,6,18,0.00,0,,156
2013-10-11,78,66,54,58,54,51,93,66,39,30.00,29.93,29.86,10,10,8,22,10,29,0.00,1,,159
2013-10-12,73,62,50,59,44,34,84,56,27,30.23,30.06,29.90,10,7,1,18,8,25,T,2,,301
2013-10-13,70,57,43,39,34,26,76,48,20,30.41,30.34,30.24,10,7,1,12,5,16,0.00,0,,4
2013-10-14,68,55,42,50,38,31,76,56,35,30.35,30.22,30.02,10,10,10,21,10,26,0.02,1,Rain,116
2013-10-15,68,57,46,61,54,39,90,69,48,29.99,29.90,29.87,10,7,2,17,10,25,0.15,6,Rain,222
2013-10-16,55,50,45,41,39,38,77,68,59,30.04,30.00,29.97,10,10,10,16,8,23,0.03,8,,281
2013-10-17,64,55,45,46,42,37,93,66,39,29.99,29.94,29.87,10,10,7,18,8,24,0.04,4,Rain,224
2013-10-18,55,48,41,40,38,33,89,68,46,30.06,30.00,29.91,10,10,9,16,9,23,0.03,5,Rain,278
2013-10-19,57,46,35,38,35,31,92,64,36,30.01,29.95,29.88,10,9,5,22,10,29,T,3,Rain,239
2013-10-20,73,57,41,40,38,36,79,52,25,29.90,29.84,29.76,10,10,10,24,12,32,0.00,2,,215
2013-10-21,58,47,36,41,32,26,76,57,38,30.06,30.01,29.87,10,10,9,18,9,24,0.00,3,,300
2013-10-22,52,44,35,45,38,30,92,82,71,30.04,29.92,29.80,10,9,3,23,11,30,0.06,7,Rain,297
2013-10-23,47,41,34,36,32,24,96,69,42,30.14,30.10,30.02,10,10,10,17,8,22,T,6,Rain,286
2013-10-24,44,35,26,36,25,20,92,67,41,30.42,30.28,30.12,10,10,10,22,9,29,0.00,5,,305
2013-10-25,55,39,23,29,23,21,88,58,28,30.49,30.37,30.16,10,10,10,20,8,28,0.00,0,,222
2013-10-26,59,47,34,35,28,22,62,44,26,30.16,30.08,30.02,10,10,10,25,11,33,0.00,1,,277
2013-10-27,59,43,27,30,26,23,85,58,30,30.13,30.07,30.00,10,10,10,15,5,18,0.00,0,,211
2013-10-28,69,53,37,33,29,26,70,46,22,30.24,30.16,30.05,10,10,10,12,5,18,0.00,0,,124
2013-10-29,55,49,43,54,44,31,100,77,53,30.23,30.13,30.06,10,6,1,15,9,18,T,6,Rain,106
2013-10-30,66,60,54,64,60,53,100,94,87,30.04,29.93,29.75,10,3,0,18,8,23,1.07,8,Fog-Rain-Thunderstorm,152
2013-10-31,64,55,45,63,54,42,97,92,86,29.76,29.55,29.39,10,7,1,20,10,25,1.08,8,Rain,259